TimeEST,TemperatureF,Dew PointF,Humidity,Sea Level PressureIn,VisibilityMPH,Wind Direction,Wind SpeedMPH,Gust SpeedMPH,PrecipitationIn,Events,Conditions,WindDirDegrees,DateUTC
12:53 AM,19.0,10.0,68,30.29,10.0,NNW,10.4,-,N/A,,Clear,340,2014-02-10 05:53:00
1:53 AM,18.0,9.0,68,30.30,10.0,NNW,11.5,-,N/A,,Overcast,340,2014-02-10 06:53:00
2:53 AM,16.0,7.0,68,30.31,10.0,North,8.1,-,N/A,,Clear,350,2014-02-10 07:53:00
3:53 AM,14.0,6.1,71,30.32,10.0,North,5.8,-,N/A,,Clear,350,2014-02-10 08:53:00
4:53 AM,14.0,6.1,71,30.34,10.0,NNW,6.9,-,N/A,,Clear,330,2014-02-10 09:53:00
5:53 AM,12.0,5.0,73,30.34,9.0,NNW,3.5,-,N/A,,Clear,340,2014-02-10 10:53:00
6:53 AM,10.9,3.9,73,30.36,10.0,NW,5.8,-,N/A,,Clear,320,2014-02-10 11:53:00
7:53 AM,10.9,3.9,73,30.38,10.0,NW,4.6,-,N/A,,Clear,320,2014-02-10 12:53:00
8:53 AM,12.0,5.0,73,30.39,10.0,Calm,Calm,-,N/A,,Clear,0,2014-02-10 13:53:00
9:53 AM,12.9,5.0,71,30.41,7.0,NNW,5.8,-,N/A,,Clear,330,2014-02-10 14:53:00
10:53 AM,15.1,6.1,68,30.40,6.0,North,4.6,-,N/A,,Haze,10,2014-02-10 15:53:00
11:53 AM,18.0,6.1,60,30.41,7.0,Variable,3.5,-,N/A,,Clear,0,2014-02-10 16:53:00
12:53 PM,19.0,6.1,57,30.40,9.0,North,8.1,-,N/A,,Clear,360,2014-02-10 17:53:00
1:53 PM,21.0,6.1,53,30.38,10.0,NNE,3.5,-,N/A,,Clear,30,2014-02-10 18:53:00
2:53 PM,21.9,6.1,51,30.37,9.0,ENE,3.5,-,0.00,,Clear,70,2014-02-10 19:53:00
3:53 PM,21.9,6.1,51,30.37,10.0,Calm,Calm,-,N/A,,Clear,0,2014-02-10 20:53:00
4:53 PM,21.9,5.0,48,30.38,10.0,NNE,6.9,-,N/A,,Clear,20,2014-02-10 21:53:00
5:53 PM,19.9,5.0,52,30.39,10.0,North,6.9,-,N/A,,Clear,10,2014-02-10 22:53:00
6:53 PM,18.0,5.0,57,30.41,10.0,NNE,4.6,-,N/A,,Clear,20,2014-02-10 23:53:00
7:53 PM,17.1,5.0,59,30.43,9.0,North,8.1,-,N/A,,Clear,350,2014-02-11 00:53:00
8:53 PM,15.1,3.9,61,30.44,9.0,NNW,6.9,-,N/A,,Clear,330,2014-02-11 01:53:00
9:53 PM,12.9,3.0,65,30.46,9.0,North,9.2,-,N/A,,Clear,360,2014-02-11 02:53:00
10:53 PM,10.9,3.0,70,30.46,8.0,North,4.6,-,N/A,,Clear,10,2014-02-11 03:53:00
11:53 PM,10.0,1.0,67,30.46,9.0,NNE,3.5,-,N/A,,Clear,30,2014-02-11 04:53:00